Retour au catalogue

STARLINK-35330

ActifCommunicationsSSO
NORAD 65791·PAYLOAD·🇺🇸 United States

Lancé Sep 26, 2025 depuis Vandenberg Space Force Base

Loading…

Prochains Passages (prochaines 24 heures)

TLE

FraisSource: CelesTrak SupGP

Époque: Sep 14, 2026, 20:58 UTC

1 65791C 25218A   26257.87409722  .00016642  00000+0  51676-3 0  2570
2 65791  97.2847 115.2735 0001678  89.3080  73.1998 15.33420371    18

Suivez STARLINK-35330 en temps réel avec AllMySat

Download on the App Store